Temperature
15 16 16 16 14 12 13 14 15 15 15 16 16 15 14 13 14 14 13 13 13 13 14 14 14 14 14 14 14 14 14 14 14 14 14 14 14 14 14 14 14 14 14 14 15 15 14 14 14
15 15 16 15 12 12 13 14 15 15 16 16 15 15 13 12 12 13 13 13 13 13 13 14 14 14 14 14 14 14 14 14 14 14 14 14 14 14 14 14 14 14 14 14 14 14 14 14 14
15 15 16 12 12 13 14 14 14 15 16 16 14 13 12 12 12 12 13 13 13 13 13 13 14 13 14 14 13 13 13 13 13 13 14 14 13 13 14 14 14 14 14 14 14 14 14 14 14
15 15 15 12 13 13 14 14 14 15 16 15 14 11 11 12 12 12 12 12 13 13 13 13 13 13 13 13 13 13 13 13 13 13 13 13 13 13 13 14 13 13 13 14 14 14 14 13 13
15 15 12 12 13 13 13 14 15 14 14 15 14 11 11 11 12 12 12 12 12 13 13 13 13 13 13 13 13 13 13 13 13 13 13 13 13 13 13 13 13 13 13 13 13 13 13 13 13
14 12 11 11 12 13 13 14 14 13 13 14 13 11 10 11 12 12 12 12 12 12 12 12 12 12 12 13 13 12 12 12 12 12 13 13 13 13 13 13 13 13 13 13 13 13 13 13 13
13 10 11 12 12 13 13 14 14 13 13 13 13 10 10 10 11 11 12 12 12 12 12 12 12 12 12 12 12 12 12 12 12 12 12 12 12 12 12 12 12 12 12 12 12 12 12 12 12
14 10 12 12 12 13 13 14 14 14 13 13 13 11 10 11 11 11 11 11 11 11 11 11 11 11 12 12 12 12 12 12 12 12 12 12 12 12 12 12 12 12 12 12 12 12 12 12 12
13 10 11 12 12 12 13 13 13 13 13 12 12 12 12 11 11 10 10 10 11 11 11 11 11 11 11 11 11 11 11 11 11 11 11 11 11 11 12 12 12 12 12 12 12 12 12 12 12
12 9 11 12 12 12 12 12 12 12 11 10 11 11 11 11 10 10 10 10 10 10 10 10 10 10 11 11 11 11 11 11 11 11 11 11 11 11 11 11 11 11 11 11 12 12 11 11 11
11 10 10 11 12 12 12 11 12 11 10 10 11 11 10 10 10 10 10 10 10 10 10 10 10 10 10 10 10 10 10 10 10 10 10 10 10 11 11 11 11 11 11 11 11 11 11 11 11
10 10 11 11 11 11 11 11 10 10 11 12 11 11 10 10 10 10 10 10 10 10 10 10 10 10 10 10 10 10 10 10 10 10 10 10 10 10 10 10 10 10 10 11 11 11 11 11 11
9 9 10 10 11 11 11 10 9 9 10 10 10 10 10 10 9 9 9 9 9 9 9 9 9 9 9 9 9 9 10 9 9 9 9 10 10 10 10 10 10 10 10 10 10 10 10 10 10
9 9 9 10 10 10 9 9 8 9 9 9 9 9 9 9 9 9 8 8 9 9 9 9 9 9 9 9 9 9 9 9 9 9 9 9 9 9 9 9 9 10 10 10 10 10 10 10 10
9 9 8 9 9 9 9 8 7 9 9 8 8 8 8 8 8 8 8 8 8 8 8 8 8 8 8 8 8 8 8 8 8 8 8 8 9 9 9 9 9 9 9 9 9 9 9 9 9
9 8 8 8 8 8 8 8 8 9 8 7 7 7 7 7 7 7 7 8 8 8 8 8 8 8 8 8 8 8 8 7 8 8 8 8 8 8 8 9 9 9 9 9 9 9 9 9 8
7 7 8 8 8 7 7 7 7 8 7 6 6 7 7 7 7 7 7 7 7 7 7 7 7 7 7 7 7 7 7 7 7 7 7 7 7 8 8 8 8 8 8 8 8 8 8 8 8
7 7 7 7 7 7 6 6 6 7 6 6 6 6 6 6 6 6 6 6 6 6 6 6 6 6 6 6 6 6 6 6 6 6 7 7 7 7 7 7 7 8 8 7 7 8 7 7 7
7 7 7 7 7 7 6 6 6 6 5 5 5 5 5 6 6 6 6 6 6 6 5 5 5 5 5 5 5 5 6 6 6 6 6 6 6 6 6 7 7 7 7 7 7 7 7 6 6
7 7 6 6 7 6 5 5 5 5 5 5 5 5 5 5 5 5 5 5 5 5 5 5 5 5 5 5 5 5 5 5 5 5 5 5 6 6 6 6 6 6 6 6 6 6 6 6 5
6 6 6 6 6 5 5 5 4 4 4 5 5 5 5 5 5 5 5 5 5 5 4 4 4 4 4 4 4 4 4 4 5 5 5 5 5 5 5 5 5 5 5 5 6 5 5 5 5
6 6 6 5 5 4 4 4 4 4 3 3 4 4 4 4 4 4 4 4 4 4 4 4 3 4 4 4 4 4 4 4 4 4 4 4 4 4 4 4 4 5 5 5 5 5 5 4 4
5 5 5 5 4 3 3 3 3 3 3 3 3 3 4 4 4 4 4 4 4 4 3 3 3 3 3 3 3 3 3 3 3 3 3 3 3 4 4 4 4 4 4 4 4 4 4 4 4
5 4 4 3 3 3 3 3 3 2 3 3 3 3 3 3 3 3 3 3 3 3 3 3 3 3 3 3 3 3 3 3 3 3 3 3 3 3 3 3 3 3 3 3 3 3 3 3 3
4 3 3 3 3 3 3 3 3 3 2 2 2 3 3 3 3 3 3 3 3 2 2 2 2 2 2 2 2 2 2 2 2 2 2 2 2 2 3 3 3 3 3 3 3 3 3 3 2
3 4 4 4 3 3 3 2 2 2 1 2 2 2 2 2 2 2 2 2 2 2 2 2 2 2 1 1 1 1 1 1 1 1 1 1 2 2 2 2 2 2 2 2 2 2 2 2 2
3 3 3 2 2 2 2 1 1 1 1 1 1 1 1 1 1 2 2 2 1 1 1 1 1 1 1 1 1 1 1 1 1 1 1 1 1 1 1 1 1 1 1 1 1 1 1 1 1
3 2 1 2 2 2 2 1 2 2 1 0 -1 -0 0 1 1 1 1 1 1 1 0 0 0 0 0 0 0 0 0 0 0 -0 -0 0 0 0 0 0 0 1 1 1 1 1 1 1 1
2 2 2 1 1 2 2 2 2 1 1 0 -1 -0 0 0 -0 -0 0 0 0 -0 -0 -0 -0 -0 -0 -0 -0 -0 -0 -0 -0 -1 -1 -1 -1 -1 -0 -0 -0 -0 -0 -0 -0 -0 -0 -0 -0
1 1 1 2 1 -0 1 2 1 -0 -1 -1 -1 -0 -0 -0 -0 -0 -1 -1 -1 -0 -1 -1 -1 -1 -1 -1 -1 -1 -1 -1 -1 -1 -1 -1 -1 -1 -1 -1 -1 -1 -1 -1 -1 -1 -1 -1 -1
Wind_Speed
9 7 2 4 4 3 3 4 3 2 2 1 1 5 7 5 3 5 2 3 5 5 5 5 6 8 8 9 10 10 11 11 11 11 12 12 12 12 12 13 13 14 14 14 14 14 15 15 15
5 2 4 4 4 2 5 4 4 3 5 4 3 4 6 4 2 5 2 2 6 6 5 5 8 9 9 10 10 11 11 11 11 12 12 12 12 12 12 12 13 14 14 14 14 14 14 14 14
4 1 3 3 4 6 5 4 6 4 3 3 3 4 4 4 3 4 2 4 6 6 5 6 10 10 10 10 11 11 12 12 12 12 12 12 12 12 12 12 13 14 14 14 14 13 13 13 14
2 3 3 2 5 6 5 4 4 3 1 2 5 5 3 2 2 4 5 6 7 6 6 7 10 10 10 10 11 11 12 12 12 11 11 11 11 12 12 12 13 13 13 14 13 13 13 13 13
3 3 2 2 6 4 3 3 3 2 2 1 4 5 2 3 4 7 7 7 7 6 7 7 9 10 10 10 10 11 11 11 11 11 11 11 11 11 11 12 12 12 12 13 13 13 13 13 13
3 3 3 6 6 4 3 3 2 1 2 1 4 6 3 1 5 6 7 7 7 7 7 8 9 9 9 10 10 10 10 10 10 10 10 10 11 10 10 11 11 11 12 12 12 13 12 12 13
4 3 4 5 5 4 4 2 3 3 3 3 4 6 3 2 4 6 7 8 8 8 8 8 8 8 8 9 9 10 9 9 10 9 9 9 10 10 10 10 10 11 11 11 11 11 12 12 12
4 3 3 4 5 5 2 2 1 3 3 1 4 7 5 5 5 7 8 7 7 7 7 7 7 8 8 8 9 9 10 9 9 10 9 9 9 10 9 9 9 10 10 10 11 11 11 12 12
3 2 4 5 5 4 1 1 1 1 3 3 3 2 4 9 9 9 7 6 5 5 5 6 6 7 8 8 8 8 8 9 9 9 9 9 8 8 8 8 8 9 10 10 10 11 11 11 12
3 4 7 3 3 3 2 1 2 1 2 2 3 5 7 9 9 9 8 7 5 4 3 4 5 6 7 7 7 7 7 7 7 7 7 7 7 7 7 8 8 8 9 9 10 10 10 10 10
3 5 4 3 2 1 2 1 1 3 3 5 5 6 8 8 7 8 7 6 6 4 3 3 4 5 6 5 6 6 6 6 6 7 7 7 7 6 6 6 7 7 8 8 8 9 9 8 8
3 3 3 2 1 1 2 2 0 2 4 3 6 9 9 9 8 7 7 6 5 5 3 3 4 4 5 5 5 5 5 5 5 6 6 6 5 5 5 5 5 6 6 6 6 6 7 8 8
3 3 1 2 1 1 1 2 2 3 2 3 7 8 9 9 7 5 5 5 5 4 3 2 3 3 3 4 4 4 5 4 4 5 5 6 5 4 4 4 4 5 5 5 5 6 6 6 7
2 2 3 4 3 2 2 4 2 5 3 4 6 7 7 8 7 6 5 5 4 4 3 2 2 3 3 3 3 3 4 4 5 5 5 5 5 5 4 3 4 4 4 4 4 5 5 5 5
1 1 4 3 4 3 2 6 6 6 5 5 6 6 6 6 6 7 7 6 5 5 4 3 2 3 3 3 3 3 4 4 4 4 5 5 5 5 4 3 3 3 4 4 4 5 5 4 4
1 1 4 4 3 2 4 9 5 5 6 6 6 6 7 6 6 6 6 5 5 4 3 3 3 2 2 2 3 3 4 4 4 4 5 5 5 5 4 3 3 3 4 5 3 2 3 3 3
1 3 5 4 2 3 5 8 5 3 6 7 7 7 7 6 5 5 5 6 5 5 4 3 3 3 2 2 3 4 4 4 4 5 5 5 4 5 4 3 3 4 4 4 3 2 2 3 3
4 4 4 5 2 3 6 9 7 4 6 7 7 7 7 7 8 6 5 5 5 4 4 3 3 3 2 2 2 3 3 3 4 4 4 4 4 4 4 4 3 4 3 3 2 3 2 3 3
4 4 6 6 3 3 8 10 9 6 6 7 7 8 8 8 6 5 5 5 5 4 4 3 3 3 3 2 2 2 2 1 1 3 4 4 4 4 4 3 3 3 3 3 3 2 3 2 2
5 6 7 5 2 4 6 10 9 6 7 8 9 9 9 7 5 6 6 5 5 5 5 4 4 4 3 3 3 2 2 1 1 2 3 3 3 3 3 3 2 2 3 3 3 3 2 1 2
6 7 6 5 4 2 4 8 6 5 5 5 6 7 7 9 8 7 7 6 5 6 6 5 5 4 4 3 2 2 1 1 1 1 1 1 1 2 2 3 2 2 3 4 4 4 4 3 1
6 5 5 4 2 4 1 5 7 4 5 5 6 6 7 7 7 7 7 6 5 5 4 5 5 4 3 4 4 4 3 3 2 2 1 1 0 1 2 2 2 1 2 3 4 3 3 4 3
5 2 3 3 3 3 2 4 8 3 6 7 6 6 6 6 7 7 7 6 5 5 4 4 4 4 4 4 5 5 3 2 2 1 1 1 1 1 1 2 2 1 2 3 3 3 3 3 3
2 2 2 2 2 4 6 6 7 5 7 5 4 5 5 4 5 5 5 4 3 3 3 3 4 4 4 4 4 5 4 3 3 2 2 2 1 1 1 1 1 1 1 2 3 4 4 4 3
3 3 2 3 2 6 3 5 8 6 5 5 5 5 3 3 4 4 4 4 3 3 3 3 4 3 4 4 4 4 5 5 5 4 4 3 2 2 2 2 2 2 2 2 3 4 4 4 4
3 5 5 5 5 5 2 6 6 3 2 1 1 1 1 2 3 4 5 5 4 4 4 4 4 4 3 4 4 4 4 4 4 4 4 4 3 3 2 3 3 2 2 2 3 3 4 4 5
3 4 4 3 2 4 6 6 6 2 1 1 1 0 1 2 2 3 3 4 4 4 4 4 4 4 3 3 3 3 3 4 4 4 4 3 3 3 2 2 3 3 3 3 3 3 4 4 5
3 4 4 3 3 6 6 6 5 5 5 4 4 4 4 2 1 2 2 3 3 3 3 3 3 3 3 3 3 3 3 4 3 3 4 4 3 3 3 2 2 3 3 3 4 3 4 5 5
4 3 4 4 4 4 5 7 5 6 6 5 5 5 4 3 3 2 2 2 2 2 2 2 2 2 2 2 2 3 3 3 3 3 3 3 3 3 3 3 3 4 4 4 4 4 4 5 5
5 6 7 5 6 5 5 8 3 3 4 4 4 3 3 3 2 2 2 1 1 2 2 2 2 2 2 2 2 2 2 2 3 3 3 3 3 3 3 3 3 4 4 4 5 6 5 6 6
Wind_Direction
329 339 67 64 63 60 231 242 218 174 160 179 111 106 114 115 136 153 144 119 117 130 136 137 118 111 106 101 99 97 97 96 94 92 89 86 84 82 79 77 76 75 75 76 78 78 78 78 78
332 3 61 70 115 193 250 237 212 219 181 149 102 91 91 89 79 110 122 120 121 126 126 130 115 111 108 104 100 97 97 98 95 91 90 88 85 83 81 80 79 77 77 77 79 81 80 79 79
328 65 91 96 160 196 216 219 201 227 198 146 94 59 97 120 125 138 152 124 110 109 113 123 114 110 108 105 102 97 96 97 96 92 90 89 87 85 83 81 79 78 78 78 80 81 81 81 80
54 54 64 116 218 225 209 210 185 178 149 88 115 87 65 27 151 143 126 110 107 92 98 113 112 108 103 103 103 98 96 95 94 93 91 91 91 88 86 84 81 79 79 79 80 81 82 82 81
65 89 104 229 236 243 231 231 192 168 168 104 120 121 104 351 104 117 114 108 110 97 90 100 106 110 105 101 100 98 95 94 92 92 91 90 92 91 89 87 85 83 82 81 81 81 80 80 79
68 86 151 222 235 239 242 232 193 197 187 133 118 125 150 109 116 121 113 108 103 99 88 92 96 98 102 102 100 97 95 95 92 90 90 90 91 92 92 90 89 87 83 82 83 82 79 77 76
124 131 199 218 226 239 235 213 188 179 187 194 143 129 152 190 145 121 109 102 95 91 84 79 83 88 92 94 93 92 92 92 92 89 87 85 86 88 93 95 92 89 86 85 84 82 78 76 73
135 129 215 227 221 237 221 170 215 185 195 58 115 145 180 193 149 114 102 93 89 83 80 76 75 76 77 84 89 89 90 89 88 85 83 80 80 81 84 93 96 94 91 88 85 81 76 73 70
103 123 218 221 214 231 213 134 349 49 105 58 51 116 152 139 129 115 106 90 86 77 70 70 68 69 74 79 79 81 84 88 87 85 84 79 72 73 76 82 93 97 96 92 86 81 76 71 67
111 190 223 223 213 210 220 188 205 99 71 67 55 56 105 120 129 131 131 130 122 108 87 71 72 70 74 78 75 75 77 77 82 84 82 81 76 75 76 80 82 91 97 94 88 80 74 67 64
154 196 222 263 282 225 203 198 171 146 213 202 178 153 137 130 132 143 145 143 141 135 108 78 75 74 75 73 76 73 74 73 76 80 82 84 78 74 72 72 69 73 84 82 80 77 70 67 66
173 231 229 262 315 197 201 183 186 204 224 188 162 150 147 148 156 159 157 149 140 124 110 86 75 76 76 79 78 77 74 70 67 74 83 86 80 73 75 72 72 73 74 76 75 73 72 70 68
223 242 255 250 289 255 219 233 227 244 209 117 128 140 158 161 162 160 146 144 138 130 122 111 85 85 83 82 78 76 72 75 71 71 78 89 90 82 79 73 79 81 80 82 78 76 75 71 69
210 231 265 261 259 265 228 259 231 240 165 137 147 164 172 171 165 154 150 148 152 150 148 135 107 97 95 90 82 79 78 82 80 73 72 85 94 93 83 75 68 75 82 87 95 94 90 80 75
208 297 297 258 224 225 206 273 236 217 158 165 175 179 177 175 166 168 170 163 161 160 152 143 132 101 101 101 94 90 87 88 80 74 72 78 88 94 93 83 69 66 81 83 82 92 92 83 75
41 304 277 268 205 199 173 257 253 184 169 192 197 188 182 186 180 174 166 157 154 142 142 150 138 121 117 111 105 96 96 93 82 80 75 74 83 95 91 82 69 75 85 79 76 88 103 96 88
359 249 249 280 221 175 193 250 264 199 186 205 208 199 192 193 192 182 168 159 154 150 151 156 150 150 143 124 110 95 94 87 83 83 75 74 81 95 92 85 80 93 86 73 80 79 110 115 95
223 229 245 249 242 182 224 252 267 237 211 219 213 207 200 200 205 186 170 163 155 153 154 153 155 148 139 125 107 101 89 74 70 77 74 77 78 94 97 89 90 99 100 91 92 100 82 115 110
211 222 245 252 238 226 245 261 266 252 229 225 223 215 211 212 202 178 171 164 154 153 155 159 162 161 150 157 165 167 169 144 73 59 70 77 78 91 97 96 103 106 125 135 124 115 102 83 97
243 255 264 279 261 236 270 275 269 252 238 228 222 219 213 206 193 185 177 170 168 173 176 173 175 177 173 176 184 186 177 173 126 69 58 68 75 88 102 99 115 122 134 131 126 126 125 91 95
244 237 248 261 318 299 306 295 268 263 248 238 227 220 212 202 198 195 188 182 179 183 188 189 185 185 185 171 149 132 116 106 96 63 6 22 66 86 100 110 118 134 155 162 155 152 134 155 163
247 233 236 244 282 277 225 284 278 257 274 257 239 223 216 206 197 192 185 183 186 195 192 187 185 186 190 174 170 168 172 181 201 205 221 328 73 107 111 120 132 139 153 169 169 157 145 156 171
224 231 230 235 221 275 233 232 279 291 269 260 240 227 216 202 193 190 188 187 186 184 185 187 182 187 192 193 188 188 189 189 175 168 190 211 239 184 137 135 143 155 167 171 165 162 159 163 175
169 49 33 53 115 259 218 200 272 240 236 250 238 224 210 198 192 190 186 170 167 169 173 177 179 193 198 200 199 193 191 181 170 182 201 217 236 242 208 168 172 181 192 187 179 177 175 182 182
91 93 7 330 276 250 194 203 248 254 247 233 234 234 224 202 189 180 174 170 170 174 182 181 185 203 207 205 209 205 198 193 193 198 205 209 219 243 228 219 211 210 215 204 187 181 187 190 191
195 162 180 222 239 276 265 230 250 267 276 265 224 233 223 197 191 183 183 180 182 188 190 188 193 204 207 211 218 219 206 200 204 205 207 211 218 224 243 231 219 218 214 212 200 195 200 199 203
172 203 187 171 252 267 259 271 291 276 304 295 274 310 260 221 201 200 198 190 188 193 199 199 199 201 206 211 214 219 218 212 211 209 210 214 220 224 219 236 239 231 223 220 205 207 214 210 211
185 161 126 162 220 255 270 254 242 244 250 253 242 247 257 250 223 221 217 208 205 205 207 201 197 202 208 209 214 217 223 219 214 203 212 216 223 221 208 215 243 242 231 226 211 213 218 216 217
175 179 179 181 197 208 261 263 221 213 222 230 243 242 241 232 231 237 237 224 212 209 198 198 197 194 210 216 224 224 226 223 210 208 215 216 223 221 213 218 228 239 231 225 216 217 215 223 225
205 202 176 197 232 211 233 263 254 224 230 217 242 259 241 229 233 234 234 246 232 228 227 218 208 211 226 229 219 221 224 219 215 219 223 218 213 218 222 221 228 245 240 231 222 221 220 220 226
Height
1512 1512 1514 1515 1519 1526 1526 1520 1513 1512 1512 1512 1511 1511 1513 1517 1520 1527 1524 1523 1525 1527 1529 1531 1532 1533 1534 1534 1535 1536 1536 1537 1537 1538 1538 1538 1538 1538 1537 1537 1537 1536 1535 1535 1534 1534 1534 1534 1534
1511 1513 1515 1515 1523 1531 1525 1516 1513 1510 1510 1510 1511 1512 1513 1516 1518 1520 1521 1523 1525 1527 1528 1530 1532 1533 1533 1534 1535 1535 1536 1536 1537 1538 1538 1538 1538 1538 1538 1538 1537 1537 1537 1536 1536 1535 1536 1536 1536
1511 1512 1514 1516 1522 1524 1519 1512 1510 1509 1509 1509 1511 1512 1514 1516 1518 1519 1520 1522 1524 1526 1528 1530 1531 1532 1533 1534 1534 1535 1536 1536 1537 1537 1538 1538 1539 1539 1539 1538 1538 1538 1538 1537 1537 1537 1537 1537 1538
1511 1513 1513 1519 1519 1515 1511 1509 1508 1508 1509 1509 1510 1514 1515 1517 1518 1519 1520 1522 1524 1526 1528 1529 1531 1532 1533 1534 1534 1535 1535 1536 1537 1537 1538 1538 1539 1539 1539 1539 1539 1539 1539 1539 1538 1538 1538 1539 1539
1510 1511 1516 1519 1516 1511 1509 1507 1508 1508 1508 1509 1510 1513 1515 1517 1518 1519 1520 1522 1524 1525 1527 1528 1530 1531 1532 1533 1534 1534 1535 1536 1536 1537 1538 1538 1539 1539 1539 1539 1539 1539 1539 1540 1540 1539 1539 1540 1540
1510 1510 1519 1519 1514 1510 1508 1507 1508 1508 1509 1509 1511 1513 1515 1517 1517 1519 1520 1522 1524 1525 1527 1528 1529 1530 1532 1533 1533 1534 1534 1535 1536 1537 1537 1538 1538 1539 1540 1540 1540 1540 1540 1540 1540 1540 1540 1540 1540
1509 1512 1515 1513 1512 1510 1508 1507 1508 1508 1508 1509 1510 1512 1514 1516 1517 1518 1520 1522 1523 1525 1526 1527 1529 1530 1531 1532 1533 1533 1534 1535 1536 1536 1537 1537 1538 1538 1539 1540 1539 1540 1540 1540 1540 1541 1541 1541 1541
1507 1511 1512 1512 1511 1509 1506 1506 1506 1507 1508 1509 1509 1510 1512 1515 1516 1518 1520 1521 1523 1524 1526 1527 1528 1529 1530 1531 1532 1533 1533 1534 1534 1535 1536 1536 1537 1538 1538 1539 1539 1540 1540 1541 1541 1541 1541 1541 1541
1506 1513 1513 1509 1508 1507 1505 1505 1506 1506 1507 1507 1508 1509 1511 1513 1515 1516 1518 1520 1522 1523 1524 1526 1527 1528 1529 1530 1531 1532 1532 1533 1534 1535 1535 1536 1537 1537 1538 1538 1539 1539 1540 1540 1540 1541 1541 1541 1541
1505 1512 1508 1506 1505 1505 1504 1505 1505 1506 1506 1507 1507 1508 1510 1511 1513 1514 1516 1517 1519 1521 1523 1524 1525 1526 1528 1528 1530 1531 1531 1532 1533 1533 1534 1535 1536 1536 1537 1537 1538 1539 1539 1540 1540 1540 1541 1541 1541
1504 1507 1505 1504 1504 1504 1504 1504 1505 1505 1506 1505 1506 1507 1508 1510 1511 1513 1514 1516 1518 1520 1521 1522 1524 1525 1526 1527 1528 1529 1530 1531 1531 1532 1533 1534 1535 1535 1536 1536 1537 1538 1538 1539 1539 1540 1540 1541 1541
1504 1504 1504 1504 1503 1503 1503 1504 1504 1504 1504 1504 1505 1505 1506 1508 1509 1511 1513 1515 1517 1518 1519 1521 1522 1523 1525 1526 1527 1528 1528 1529 1530 1531 1532 1532 1533 1534 1534 1535 1536 1536 1537 1538 1539 1539 1540 1540 1541
1503 1503 1503 1503 1503 1503 1503 1503 1503 1502 1502 1503 1504 1505 1505 1506 1508 1510 1512 1514 1515 1516 1518 1519 1520 1521 1523 1524 1525 1526 1526 1527 1528 1529 1530 1530 1531 1532 1533 1534 1534 1535 1535 1536 1537 1538 1539 1539 1540
1502 1502 1502 1502 1502 1502 1503 1502 1503 1499 1501 1501 1502 1503 1504 1505 1506 1508 1509 1511 1512 1514 1516 1517 1519 1520 1520 1521 1522 1523 1524 1525 1526 1527 1527 1528 1529 1530 1531 1532 1532 1533 1534 1535 1535 1536 1537 1538 1539
1502 1503 1502 1500 1500 1501 1503 1502 1499 1497 1499 1499 1500 1501 1502 1503 1504 1505 1506 1508 1510 1512 1513 1515 1516 1517 1518 1519 1520 1521 1522 1523 1524 1524 1525 1526 1527 1528 1529 1530 1530 1531 1532 1533 1533 1534 1535 1536 1537
1502 1504 1504 1499 1499 1499 1504 1501 1495 1495 1496 1497 1497 1498 1500 1501 1502 1503 1504 1506 1508 1509 1511 1512 1513 1514 1516 1517 1518 1518 1519 1520 1521 1522 1523 1524 1525 1525 1526 1527 1528 1529 1529 1530 1531 1532 1532 1533 1534
1505 1507 1504 1501 1498 1499 1502 1499 1494 1494 1494 1494 1495 1496 1497 1498 1499 1500 1502 1504 1506 1507 1508 1509 1510 1511 1512 1514 1515 1516 1517 1518 1519 1520 1520 1521 1522 1523 1524 1524 1525 1526 1527 1527 1528 1529 1530 1530 1531
1506 1506 1503 1501 1498 1499 1500 1497 1493 1492 1492 1491 1492 1493 1493 1494 1495 1497 1499 1501 1503 1505 1506 1507 1508 1509 1510 1511 1512 1513 1514 1515 1516 1517 1517 1518 1519 1520 1521 1522 1522 1523 1524 1525 1526 1527 1528 1528 1528
1501 1502 1502 1499 1496 1498 1497 1494 1491 1489 1489 1489 1489 1489 1489 1490 1492 1494 1496 1498 1500 1501 1502 1503 1504 1506 1507 1508 1509 1510 1510 1511 1512 1513 1515 1516 1516 1517 1518 1519 1519 1520 1521 1522 1522 1523 1524 1525 1525
1500 1502 1501 1498 1497 1498 1497 1493 1488 1486 1485 1484 1484 1484 1485 1486 1488 1490 1492 1494 1496 1497 1499 1500 1501 1502 1503 1504 1506 1507 1507 1508 1509 1510 1511 1512 1513 1514 1515 1515 1516 1517 1517 1518 1519 1520 1521 1522 1522
1500 1501 1500 1500 1498 1498 1498 1492 1487 1483 1482 1481 1480 1480 1481 1483 1484 1486 1488 1490 1492 1493 1495 1496 1498 1499 1500 1501 1503 1504 1504 1505 1506 1507 1508 1509 1510 1510 1511 1512 1513 1513 1514 1514 1515 1516 1517 1518 1520
1499 1497 1497 1498 1502 1504 1501 1500 1485 1483 1481 1478 1477 1477 1478 1479 1481 1483 1485 1487 1488 1490 1492 1493 1494 1495 1496 1497 1499 1499 1500 1500 1501 1503 1504 1505 1506 1507 1508 1509 1509 1510 1510 1511 1512 1513 1514 1516 1516
1496 1496 1497 1498 1501 1505 1503 1504 1489 1483 1480 1476 1474 1474 1475 1476 1478 1480 1481 1483 1485 1487 1488 1490 1491 1492 1493 1494 1494 1495 1496 1497 1498 1499 1500 1501 1502 1503 1504 1505 1506 1506 1507 1508 1508 1510 1511 1512 1513
1495 1497 1499 1502 1504 1503 1497 1502 1490 1483 1476 1473 1472 1472 1473 1474 1476 1477 1479 1481 1482 1484 1485 1486 1487 1488 1489 1490 1490 1491 1492 1493 1494 1495 1496 1497 1498 1499 1500 1501 1502 1503 1503 1504 1505 1506 1507 1508 1510
1496 1502 1506 1505 1505 1498 1493 1496 1487 1476 1473 1471 1471 1470 1471 1472 1473 1474 1476 1477 1478 1480 1481 1482 1483 1484 1485 1486 1486 1487 1488 1489 1490 1490 1491 1493 1493 1494 1496 1497 1498 1499 1500 1501 1502 1502 1503 1505 1506
1496 1498 1504 1504 1502 1498 1493 1493 1481 1474 1472 1470 1470 1470 1470 1471 1471 1472 1473 1474 1475 1477 1478 1479 1480 1480 1481 1482 1483 1484 1484 1485 1485 1486 1487 1488 1489 1490 1491 1492 1493 1494 1495 1496 1497 1498 1499 1501 1502
1496 1498 1497 1503 1505 1505 1495 1490 1479 1472 1472 1471 1470 1470 1469 1470 1470 1470 1471 1472 1473 1474 1474 1475 1476 1477 1477 1478 1479 1480 1480 1481 1481 1482 1483 1484 1485 1485 1486 1487 1488 1489 1490 1491 1492 1493 1494 1496 1497
1493 1495 1501 1502 1501 1499 1491 1488 1479 1473 1471 1470 1470 1469 1468 1469 1469 1469 1469 1470 1471 1471 1472 1472 1473 1473 1474 1474 1475 1476 1476 1477 1477 1478 1478 1479 1480 1480 1482 1482 1483 1484 1485 1486 1487 1488 1489 1490 1492
1494 1495 1495 1499 1499 1498 1495 1481 1469 1468 1467 1468 1468 1467 1467 1467 1467 1467 1467 1468 1468 1468 1468 1469 1469 1470 1470 1471 1471 1471 1472 1473 1473 1473 1474 1474 1475 1476 1476 1477 1478 1479 1480 1480 1481 1482 1483 1485 1486
1489 1489 1493 1495 1496 1498 1493 1480 1465 1466 1464 1465 1466 1466 1465 1466 1466 1465 1465 1465 1465 1465 1465 1465 1465 1466 1466 1466 1467 1467 1468 1468 1468 1469 1469 1470 1471 1471 1472 1472 1473 1474 1474 1475 1476 1476 1477 1479 1480